TimeEDT,TemperatureF,Dew PointF,Humidity,Sea Level PressureIn,VisibilityMPH,Wind Direction,Wind SpeedMPH,Gust SpeedMPH,PrecipitationIn,Events,Conditions,WindDirDegrees,DateUTC
12:15 AM,21.2,17.4,85,29.78,10.0,WSW,11.5,-,N/A,,Scattered Clouds,250,2013-03-20 04:15:00
12:34 AM,21.0,16.9,84,29.78,10.0,WSW,9.2,-,N/A,,Mostly Cloudy,250,2013-03-20 04:34:00
12:54 AM,18.9,15.4,87,29.78,10.0,WSW,8.1,-,N/A,,Scattered Clouds,240,2013-03-20 04:54:00
1:15 AM,17.4,14.5,88,29.79,10.0,WSW,6.9,-,N/A,,Clear,250,2013-03-20 05:15:00
1:34 AM,18.7,16.0,89,29.79,10.0,West,6.9,-,N/A,,Clear,260,2013-03-20 05:34:00
1:54 AM,19.2,16.5,89,29.79,10.0,West,8.1,-,N/A,,Clear,270,2013-03-20 05:54:00
2:15 AM,18.5,15.1,86,29.80,10.0,WSW,6.9,-,N/A,,Clear,250,2013-03-20 06:15:00
2:34 AM,17.2,14.4,88,29.80,10.0,WSW,6.9,-,N/A,,Clear,240,2013-03-20 06:34:00
2:54 AM,16.3,13.6,89,29.80,10.0,West,6.9,-,N/A,,Clear,260,2013-03-20 06:54:00
3:15 AM,14.7,11.8,88,29.80,10.0,WSW,8.1,-,N/A,,Clear,240,2013-03-20 07:15:00
3:34 AM,13.3,11.5,93,29.80,10.0,SW,9.2,-,N/A,,Clear,230,2013-03-20 07:34:00
3:54 AM,16.2,14.0,91,29.80,10.0,SW,9.2,-,N/A,,Clear,230,2013-03-20 07:54:00
4:15 AM,16.0,13.8,91,29.79,10.0,SW,10.4,-,N/A,,Clear,230,2013-03-20 08:15:00
4:34 AM,15.8,13.1,89,29.79,10.0,SW,10.4,-,N/A,,Clear,230,2013-03-20 08:34:00
4:54 AM,13.3,11.1,91,29.80,10.0,SW,6.9,-,N/A,,Clear,220,2013-03-20 08:54:00
5:15 AM,13.3,11.3,92,29.80,10.0,SW,11.5,-,N/A,,Clear,230,2013-03-20 09:15:00
5:34 AM,16.3,14.0,90,29.80,10.0,SW,12.7,-,N/A,,Clear,230,2013-03-20 09:34:00
5:54 AM,15.8,13.5,90,29.81,10.0,SW,9.2,-,N/A,,Clear,230,2013-03-20 09:54:00
6:15 AM,14.0,12.2,93,29.81,10.0,SW,8.1,-,N/A,,Clear,220,2013-03-20 10:15:00
6:34 AM,12.6,10.9,93,29.81,10.0,SW,8.1,-,N/A,,Clear,230,2013-03-20 10:34:00
6:54 AM,12.6,11.1,94,29.81,10.0,SW,9.2,-,N/A,,Clear,230,2013-03-20 10:54:00
7:14 AM,12.4,10.6,92,29.81,10.0,SW,9.2,-,N/A,,Clear,230,2013-03-20 11:14:00
7:34 AM,10.4,8.1,90,29.81,10.0,WSW,9.2,-,N/A,,Clear,240,2013-03-20 11:34:00
7:54 AM,8.8,7.0,92,29.81,10.0,WSW,8.1,-,N/A,,Clear,240,2013-03-20 11:54:00
8:14 AM,10.0,8.2,92,29.81,10.0,WSW,8.1,-,N/A,,Clear,240,2013-03-20 12:14:00
8:34 AM,12.7,10.8,92,29.82,10.0,SW,9.2,-,N/A,,Clear,230,2013-03-20 12:34:00
8:54 AM,14.9,12.6,90,29.82,10.0,SW,10.4,-,N/A,,Clear,230,2013-03-20 12:54:00
9:14 AM,16.9,13.8,88,29.82,10.0,West,9.2,-,N/A,,Clear,260,2013-03-20 13:14:00
9:34 AM,19.4,14.9,83,29.81,10.0,WSW,11.5,-,N/A,,Clear,250,2013-03-20 13:34:00
9:55 AM,21.6,15.4,77,29.81,10.0,WSW,13.8,-,N/A,,Scattered Clouds,250,2013-03-20 13:55:00
10:14 AM,23.2,15.6,73,29.81,10.0,West,12.7,19.6,N/A,,Mostly Cloudy,270,2013-03-20 14:14:00
10:34 AM,24.4,15.6,69,29.80,10.0,West,11.5,17.3,N/A,,Mostly Cloudy,270,2013-03-20 14:34:00
10:55 AM,24.3,15.4,69,29.81,10.0,West,10.4,17.3,N/A,Snow,Light Snow,270,2013-03-20 14:55:00
11:14 AM,24.1,14.5,67,29.81,10.0,WNW,9.2,-,N/A,,Overcast,290,2013-03-20 15:14:00
11:34 AM,24.8,13.8,63,29.81,10.0,West,11.5,-,N/A,,Overcast,260,2013-03-20 15:34:00
11:55 AM,25.2,13.3,61,29.80,10.0,West,16.1,20.7,N/A,,Overcast,260,2013-03-20 15:55:00
12:14 PM,25.5,14.7,64,29.80,1.8,WNW,10.4,18.4,N/A,,Haze,300,2013-03-20 16:14:00
12:34 PM,25.5,16.2,68,29.81,10.0,WNW,6.9,-,N/A,,Overcast,290,2013-03-20 16:34:00
12:55 PM,25.3,16.0,68,29.81,10.0,West,9.2,-,N/A,,Overcast,280,2013-03-20 16:55:00
1:12 PM,25.7,15.8,66,29.81,10.0,West,9.2,-,N/A,,Overcast,270,2013-03-20 17:12:00
1:34 PM,26.4,14.0,59,29.80,10.0,West,16.1,-,N/A,,Overcast,260,2013-03-20 17:34:00
1:55 PM,26.1,15.6,65,29.81,10.0,WNW,12.7,-,N/A,,Overcast,290,2013-03-20 17:55:00
2:14 PM,25.7,14.4,62,29.80,5.0,West,11.5,20.7,N/A,Snow,Light Snow,260,2013-03-20 18:14:00
2:34 PM,26.4,13.6,59,29.80,7.0,WNW,12.7,-,N/A,Snow,Light Snow,290,2013-03-20 18:34:00
2:55 PM,26.4,14.4,60,29.80,10.0,West,15.0,19.6,N/A,Snow,Light Snow,260,2013-03-20 18:55:00
3:14 PM,26.6,12.2,55,29.79,10.0,WSW,15.0,23.0,N/A,,Overcast,250,2013-03-20 19:14:00
3:34 PM,26.1,14.9,63,29.79,10.0,West,20.7,-,N/A,,Overcast,260,2013-03-20 19:34:00
3:55 PM,27.1,11.7,52,29.79,10.0,WSW,16.1,-,N/A,,Overcast,250,2013-03-20 19:55:00
4:14 PM,25.7,14.2,62,29.80,10.0,WSW,10.4,15.0,N/A,,Overcast,250,2013-03-20 20:14:00
4:34 PM,26.6,10.8,51,29.80,10.0,West,15.0,20.7,N/A,,Overcast,280,2013-03-20 20:34:00
4:55 PM,26.6,9.9,49,29.79,10.0,West,16.1,-,N/A,,Overcast,260,2013-03-20 20:55:00
5:14 PM,27.0,8.4,46,29.79,10.0,West,13.8,-,N/A,,Overcast,260,2013-03-20 21:14:00
5:34 PM,26.6,8.6,47,29.79,10.0,West,16.1,23.0,N/A,,Overcast,260,2013-03-20 21:34:00
5:54 PM,26.6,8.2,46,29.80,10.0,West,15.0,18.4,N/A,,Overcast,270,2013-03-20 21:54:00
6:14 PM,26.8,7.7,45,29.81,10.0,West,12.7,17.3,N/A,,Overcast,280,2013-03-20 22:14:00
6:34 PM,26.4,7.3,45,29.81,10.0,West,12.7,-,N/A,,Overcast,270,2013-03-20 22:34:00
6:54 PM,25.7,7.9,47,29.82,10.0,West,13.8,-,N/A,,Overcast,270,2013-03-20 22:54:00
7:14 PM,25.2,9.0,50,29.82,10.0,West,15.0,-,N/A,,Overcast,260,2013-03-20 23:14:00
7:35 PM,24.6,9.0,51,29.82,10.0,West,12.7,-,N/A,,Overcast,270,2013-03-20 23:35:00
7:55 PM,23.9,8.4,52,29.82,10.0,West,10.4,-,N/A,,Mostly Cloudy,270,2013-03-20 23:55:00
8:14 PM,22.5,8.2,54,29.83,10.0,West,9.2,-,N/A,,Scattered Clouds,270,2013-03-21 00:14:00
8:34 PM,21.2,7.7,56,29.83,10.0,West,6.9,-,N/A,,Clear,280,2013-03-21 00:34:00
8:54 PM,20.7,7.2,56,29.84,10.0,West,6.9,-,N/A,,Scattered Clouds,270,2013-03-21 00:54:00
9:14 PM,18.9,7.3,61,29.83,10.0,West,6.9,-,N/A,,Mostly Cloudy,270,2013-03-21 01:14:00
9:34 PM,17.8,7.3,64,29.84,10.0,WSW,5.8,-,N/A,,Overcast,250,2013-03-21 01:34:00
9:54 PM,16.7,7.3,67,29.83,10.0,West,9.2,-,N/A,,Scattered Clouds,260,2013-03-21 01:54:00
10:14 PM,16.0,7.2,68,29.83,10.0,WSW,11.5,-,N/A,,Scattered Clouds,250,2013-03-21 02:14:00
10:34 PM,17.6,8.6,68,29.82,10.0,West,10.4,-,N/A,,Clear,260,2013-03-21 02:34:00
10:54 PM,16.7,8.4,70,29.82,10.0,WSW,11.5,-,N/A,,Clear,240,2013-03-21 02:54:00
11:14 PM,16.7,8.6,70,29.81,10.0,WSW,12.7,-,N/A,,Clear,240,2013-03-21 03:14:00
11:34 PM,15.6,8.1,72,29.81,10.0,WSW,10.4,-,N/A,,Mostly Cloudy,240,2013-03-21 03:34:00
11:54 PM,16.2,8.6,72,29.81,10.0,WSW,10.4,-,N/A,,Overcast,250,2013-03-21 03:54:00